Location: Observatory Park - Geauga Park District
(41.5832°N, 81.0716°W)
Time: 20:46:38
(UTC-04:00)

Envisat - Pass Details

Date: 29 September 2021
Orbit: 764 x 766 km, 98.2° (Epoch: 17 October)

Event Time Altitude Azimuth Distance (km) Brightness Sun altitude
Rises 05:49:56 0° 23° (NNE) 3,236 6.8 -17.4°
Reaches altitude 10° 05:52:29 10° 33° (NNE) 2,305 6.1 -17.0°
Maximum altitude 05:57:00 32° 96° (E) 1,295 4.9 -16.1°
Drops below altitude 10° 06:01:29 10° 159° (SSE) 2,290 5.6 -15.3°
Sets 06:04:00 0° 169° (S) 3,211 6.2 -14.9°
